Voltar ao catálogo

DEIMOS 1

AtivoCiênciaSSO
NORAD 35681·PAYLOAD·🇪🇸 Spain

Lançado Jul 29, 2009 de Baikonur Cosmodrome

Loading…

Próximas Passagens (próximas 24 horas)

TLE

AtualizadoSource: Space-Track

Época: Sep 14, 2026, 13:55 UTC

1 35681U 09041A   26257.57990788  .00000006  00000-0  78576-5 0  9996
2 35681  97.7523  50.9999 0000234  92.3691 267.7546 14.75312484920061

Acompanhe DEIMOS 1 em tempo real com AllMySat

Download on the App Store